Weather History for Phuket, Thailand

Change the Weather History Date:

Tuesday, October 11, 2011

  Actual Average Record
Temperature  
Mean Temperature 77 °F -  
Max Temperature 81 °F 87 °F 93 °F (2002)
Min Temperature 73 °F 76 °F 72 °F (2012)
Cooling Degree Days 12    
Growing Degree Days 27 (Base 50)    
Moisture  
Dew Point 74 °F    
Average Humidity 91    
Maximum Humidity 96    
Minimum Humidity 79    
Precipitation  
Precipitation 6.02 in 0.38 in - ()
Sea Level Pressure  
Sea Level Pressure 29.87 in    
Wind  
Wind Speed 4 mph ()    
Max Wind Speed 23 mph    
Max Gust Speed 34 mph    
Visibility 2.9 miles    
Events Rain    
Averages and records for this station are not official NWS values.
T = Trace of Precipitation, MM = Missing Value Source: Averaged Metar Reports

Daily Weather History Graph

Daily Weather History Graph

Search for Another Location

Airport:

Trip Planner

Search our weather history database for the weather conditions in past years. The results will help you decide how hot, cold, wet, or windy it might be!

Date:

Astronomy

Oct. 11, 2011 Rise Set
Actual Time 6:14 AM ICT 6:12 PM ICT
Civil Twilight 5:53 AM ICT 6:33 PM ICT
Nautical Twilight 5:28 AM ICT 6:58 PM ICT
Astronomical Twilight 5:04 AM ICT 7:22 PM ICT
Moon 5:35 PM ICT (10/11) 5:22 AM ICT (10/11)
Length of Visible Light 12h 40m
Length of Day
11h 58m
Waxing Gibbous, 99% of the Moon is Illuminated
Oct 11
Waxing Gibbous
Oct 12
Full
Oct 20
Last Quarter
Oct 27
New
Nov 2
First Quarter

Hourly Weather History & Observations

Time (ICT) Temp. Heat Index Dew Point Humidity Pressure Visibility Wind Dir Wind Speed Gust Speed Precip Events Conditions
12:00 AM 80.6 °F 85.4 °F 73.4 °F 79% 29.89 in 5.0 mi West 8.1 mph - N/A   Mostly Cloudy
12:30 AM 77.0 °F - 73.4 °F 89% 29.89 in 4.3 mi Variable 5.8 mph - N/A   Mostly Cloudy
1:00 AM 80 °F - 76 °F 82% 29.87 in 6 mi SW 4.6 mph - - Rain Light Rain
1:00 AM 77.0 °F - 73.4 °F 89% 29.89 in 4.3 mi Variable 1.2 mph - N/A   Mostly Cloudy
1:30 AM 75.2 °F - 73.4 °F 94% 29.86 in 3.1 mi Variable 5.8 mph - N/A Rain Light Rain
2:00 AM 75.2 °F - 73.4 °F 94% 29.86 in 1.9 mi Variable 2.3 mph - N/A Rain Rain
2:30 AM 75.2 °F - 73.4 °F 94% 29.86 in 3.1 mi ENE 8.1 mph - N/A Rain Light Rain
3:00 AM 73.4 °F - 71.6 °F 94% 29.86 in 1.9 mi NNW 15.0 mph - N/A Rain Rain
3:30 AM 73.4 °F - 71.6 °F 94% 29.86 in 3.1 mi Calm Calm - N/A Rain Rain
4:00 AM 73.4 °F - 71.6 °F 94% 29.83 in 4.3 mi Calm Calm - N/A Rain Light Rain
4:30 AM 73.4 °F - 71.6 °F 94% 29.83 in 3.1 mi Calm Calm - N/A Rain Rain
5:00 AM 75.2 °F - 71.6 °F 89% 29.86 in 4.3 mi Variable 1.2 mph - N/A Rain Light Rain
6:00 AM 75.2 °F - 73.4 °F 94% 29.86 in 4.3 mi NE 3.5 mph - N/A Rain Light Rain
6:30 AM 75.2 °F - 73.4 °F 94% 29.86 in 3.1 mi Variable 1.2 mph - N/A Rain Rain
7:00 AM 77 °F - 76 °F 95% 29.83 in 4 mi Calm Calm - - Rain Light Rain
7:00 AM 75.2 °F - 73.4 °F 94% 29.89 in 3.1 mi Calm Calm - N/A Rain Rain
7:30 AM 77.0 °F - 73.4 °F 89% 29.89 in 4.3 mi Calm Calm - N/A Rain Light Rain
8:00 AM 77.0 °F - 75.2 °F 94% 29.89 in 4.3 mi Calm Calm - N/A   Mostly Cloudy
8:30 AM 77.0 °F - 75.2 °F 94% 29.92 in 5.0 mi Calm Calm - N/A   Mostly Cloudy
9:00 AM 78.8 °F - 75.2 °F 89% 29.92 in 4.3 mi Variable 2.3 mph - N/A   Mostly Cloudy
9:30 AM 77.0 °F - 73.4 °F 89% 29.95 in 1.2 mi Variable 6.9 mph - N/A Rain Rain
10:00 AM 75.2 °F - 73.4 °F 94% 29.92 in 1.2 mi NW 4.6 mph - N/A Rain Rain
10:30 AM 77.0 °F - 73.4 °F 89% 29.92 in 4.3 mi Calm Calm - N/A Rain Light Rain
11:00 AM 77.0 °F - 73.4 °F 89% 29.92 in 4.3 mi Calm Calm - N/A Rain Light Rain
11:30 AM 78.8 °F - 75.2 °F 89% 29.92 in 4.3 mi Variable 1.2 mph - N/A   Mostly Cloudy
12:00 PM 78.8 °F - 73.4 °F 83% 29.89 in 0.9 mi West 9.2 mph - N/A Rain Heavy Rain
12:30 PM 75.2 °F - 73.4 °F 94% 29.89 in 1.9 mi West 11.5 mph - N/A Rain Rain
1:00 PM 77 °F - 76 °F 95% 29.84 in 2 mi Calm Calm - - Rain Light Rain
1:00 PM 75.2 °F - 73.4 °F 94% 29.86 in 1.2 mi WNW 10.4 mph - N/A Rain Rain
1:30 PM 78.8 °F - 75.2 °F 89% 29.83 in 1.9 mi Calm Calm - N/A Rain Rain
2:00 PM 78.8 °F - 75.2 °F 89% 29.83 in 1.9 mi Variable 8.1 mph - N/A Rain Rain
2:30 PM 78.8 °F - 75.2 °F 89% 29.83 in 0.3 mi WNW 13.8 mph - N/A Rain Heavy Rain
3:00 PM 73.4 °F - 71.6 °F 94% 29.83 in 0.6 mi West 18.4 mph - N/A Rain Heavy Rain
3:30 PM 75.2 °F - 73.4 °F 94% 29.80 in 0.2 mi NNW 11.5 mph - N/A Rain Heavy Rain
4:00 PM 75.2 °F - 71.6 °F 89% 29.83 in 0.3 mi Variable 8.1 mph 19.6 mph N/A Rain Heavy Rain
4:30 PM 73.4 °F - 71.6 °F 94% 29.83 in 1.2 mi Variable 3.5 mph - N/A Rain Rain
5:00 PM 75.2 °F - 73.4 °F 94% 29.83 in 1.2 mi Variable 1.2 mph - N/A Rain Rain
5:30 PM 75.2 °F - 73.4 °F 94% 29.83 in 1.2 mi Calm Calm - N/A Rain Rain
6:00 PM 77.0 °F - 75.2 °F 94% 29.86 in 1.2 mi West 4.6 mph - N/A Rain Rain
6:30 PM 77.0 °F - 73.4 °F 89% 29.86 in 1.9 mi Variable 1.2 mph - N/A Rain Rain
7:00 PM 79 °F - 78 °F 96% 29.83 in 4 mi Calm Calm - - Rain Rain
7:00 PM 77.0 °F - 73.4 °F 89% 29.86 in 4.3 mi Variable 2.3 mph - N/A Rain Light Rain
7:30 PM 77.0 °F - 75.2 °F 94% 29.86 in 4.3 mi Calm Calm - N/A Rain Light Rain
8:00 PM 78.8 °F - 75.2 °F 89% 29.86 in 5.0 mi WNW 5.8 mph - N/A   Mostly Cloudy
8:30 PM 77.0 °F - 73.4 °F 89% 29.89 in 4.3 mi WNW 9.2 mph - N/A Rain Light Rain
9:00 PM 77.0 °F - 75.2 °F 94% 29.89 in 3.1 mi WNW 8.1 mph - N/A Rain Rain
9:30 PM 77.0 °F - 73.4 °F 89% 29.92 in 3.1 mi WNW 10.4 mph - N/A Rain Rain
10:00 PM 77.0 °F - 73.4 °F 89% 29.92 in 1.9 mi West 23.0 mph 34.5 mph N/A Rain Heavy Rain
10:30 PM 75.2 °F - 73.4 °F 94% 29.92 in 1.9 mi West 12.7 mph - N/A Rain Rain
11:00 PM 75.2 °F - 73.4 °F 94% 29.92 in 3.1 mi Variable 2.3 mph - N/A Rain Rain
11:30 PM 77.0 °F - 73.4 °F 89% 29.92 in 1.9 mi SW 4.6 mph - N/A Rain Rain